Hourly Weather Barnasie

Today, 18 April, Sunday

Time Temperature Precipitation Wind Pressure Humidity
00:00 +1°C° 0 mm 0 mps 707 mmHg 98%
01:00 +1°C° 0 mm 0 mps 707 mmHg 98%
02:00 +1°C° 0 mm 0 mps 707 mmHg 98%
03:00 +1°C° 0 mm 0 mps 706 mmHg 98%
04:00 +1°C° 0 mm 0 mps 706 mmHg 98%
05:00 +1°C° 0 mm 0 mps 706 mmHg 97%
06:00 +2°C° 0 mm 0 mps 706 mmHg 96%
07:00 +2°C° 0 mm 0 mps 706 mmHg 95%
08:00 +3°C° 0 mm 1 mps 707 mmHg 93%
09:00 +4°C° 0 mm 1 mps 707 mmHg 90%
10:00 +4°C° 0 mm 1 mps 707 mmHg 88%
11:00 +5°C° 0 mm 1 mps 707 mmHg 85%
12:00 +6°C° 0 mm 1 mps 707 mmHg 83%
13:00 +6°C° 0 mm 1 mps 707 mmHg 80%
14:00 +6°C° 0 mm 1 mps 707 mmHg 81%
15:00 +6°C° 0 mm 1 mps 707 mmHg 82%
16:00 +6°C° 0 mm 1 mps 706 mmHg 84%
17:00 +6°C° 0 mm 1 mps 707 mmHg 87%
18:00 +5°C° 0 mm 1 mps 707 mmHg 89%
19:00 +5°C° 0 mm 1 mps 707 mmHg 92%
20:00 +5°C° 0 mm 1 mps 707 mmHg 93%
21:00 +5°C° 0 mm 1 mps 707 mmHg 93%
22:00 +4°C° 0 mm 0 mps 707 mmHg 93%
23:00 +4°C° 0.1 mm 0 mps 707 mmHg 93%

Tomorrow, 19 April, Monday

Time Temperature Precipitation Wind Pressure Humidity
00:00 +4°C° 0.1 mm 0 mps 706 mmHg 93%
01:00 +3°C° 0.1 mm 0 mps 706 mmHg 93%
02:00 +3°C° 0.1 mm 0 mps 706 mmHg 93%
03:00 +3°C° 0.1 mm 0 mps 706 mmHg 94%
04:00 +3°C° 0.1 mm 0 mps 706 mmHg 94%
05:00 +4°C° 0.1 mm 0 mps 706 mmHg 92%
06:00 +4°C° 0.1 mm 0 mps 706 mmHg 91%
07:00 +5°C° 0.1 mm 0 mps 706 mmHg 89%
08:00 +6°C° 0.1 mm 1 mps 705 mmHg 87%
09:00 +7°C° 0.1 mm 1 mps 705 mmHg 85%
10:00 +7°C° 0.1 mm 1 mps 705 mmHg 84%
11:00 +8°C° 0.3 mm 1 mps 705 mmHg 83%
12:00 +8°C° 0.3 mm 1 mps 705 mmHg 83%
13:00 +8°C° 0.3 mm 1 mps 705 mmHg 82%
14:00 +8°C° 0.3 mm 1 mps 705 mmHg 85%
15:00 +6°C° 0.3 mm 2 mps 705 mmHg 89%
16:00 +6°C° 0.3 mm 2 mps 704 mmHg 92%
17:00 +6°C° 0.3 mm 1 mps 704 mmHg 93%
18:00 +6°C° 0.3 mm 1 mps 704 mmHg 95%
19:00 +6°C° 0.3 mm 1 mps 704 mmHg 96%
20:00 +6°C° 0.1 mm 1 mps 704 mmHg 96%
21:00 +5°C° 0.1 mm 1 mps 704 mmHg 97%
22:00 +5°C° 0.1 mm 1 mps 704 mmHg 97%
23:00 +5°C° 0.1 mm 1 mps 704 mmHg 98%

Day after tomorrow, 20 April, Tuesday

Time Temperature Precipitation Wind Pressure Humidity
00:00 +5°C° 0.1 mm 1 mps 704 mmHg 98%
01:00 +5°C° 0.1 mm 1 mps 703 mmHg 98%
02:00 +5°C° 0 mm 1 mps 703 mmHg 98%
03:00 +5°C° 0 mm 1 mps 703 mmHg 98%
04:00 +5°C° 0 mm 1 mps 703 mmHg 98%
05:00 +5°C° 0 mm 1 mps 703 mmHg 98%
06:00 +5°C° 0 mm 1 mps 703 mmHg 97%
07:00 +5°C° 0 mm 1 mps 703 mmHg 96%
08:00 +5°C° 0.3 mm 1 mps 703 mmHg 96%
09:00 +5°C° 0.3 mm 1 mps 703 mmHg 96%
10:00 +5°C° 0.3 mm 1 mps 703 mmHg 96%
11:00 +6°C° 0.2 mm 1 mps 703 mmHg 94%
12:00 +6°C° 0.2 mm 1 mps 703 mmHg 91%
13:00 +7°C° 0.2 mm 1 mps 704 mmHg 89%
14:00 +7°C° 0.1 mm 1 mps 703 mmHg 87%
15:00 +8°C° 0.1 mm 1 mps 703 mmHg 85%
16:00 +8°C° 0.1 mm 1 mps 703 mmHg 84%
17:00 +7°C° 0.1 mm 1 mps 703 mmHg 87%
18:00 +6°C° 0.1 mm 1 mps 703 mmHg 90%
19:00 +4°C° 0.1 mm 0 mps 703 mmHg 93%
20:00 +4°C° 0.1 mm 0 mps 703 mmHg 93%
21:00 +4°C° 0.1 mm 0 mps 704 mmHg 93%
22:00 +4°C° 0.1 mm 0 mps 704 mmHg 93%
23:00 +4°C° 0 mm 0 mps 704 mmHg 93%

21 April, Wednesday

Time Temperature Precipitation Wind Pressure Humidity
00:00 +4°C° 0 mm 0 mps 703 mmHg 93%
01:00 +3°C° 0 mm 0 mps 703 mmHg 93%
02:00 +4°C° 0 mm 1 mps 703 mmHg 93%
03:00 +4°C° 0 mm 1 mps 703 mmHg 93%
04:00 +4°C° 0 mm 1 mps 703 mmHg 93%
05:00 +5°C° 0.1 mm 1 mps 704 mmHg 90%
06:00 +5°C° 0.1 mm 0 mps 704 mmHg 87%
07:00 +6°C° 0.1 mm 0 mps 704 mmHg 85%
08:00 +8°C° 0.2 mm 1 mps 704 mmHg 79%
09:00 +9°C° 0.2 mm 1 mps 704 mmHg 73%
10:00 +11°C° 0.2 mm 1 mps 704 mmHg 67%
11:00 +10°C° 0.3 mm 2 mps 704 mmHg 63%
12:00 +12°C° 0.3 mm 2 mps 704 mmHg 60%
13:00 +13°C° 0.3 mm 2 mps 703 mmHg 56%
14:00 +12°C° 0.4 mm 2 mps 703 mmHg 61%
15:00 +12°C° 0.4 mm 2 mps 703 mmHg 66%
16:00 +10°C° 0.4 mm 2 mps 703 mmHg 71%
17:00 +9°C° 0.4 mm 2 mps 703 mmHg 77%
18:00 +7°C° 0.4 mm 2 mps 704 mmHg 83%
19:00 +6°C° 0.4 mm 1 mps 704 mmHg 89%
20:00 +6°C° 0 mm 1 mps 704 mmHg 89%
21:00 +5°C° 0 mm 1 mps 704 mmHg 90%
22:00 +4°C° 0 mm 2 mps 704 mmHg 90%
23:00 +4°C° 0 mm 2 mps 704 mmHg 90%

22 April, Thursday

Time Temperature Precipitation Wind Pressure Humidity
00:00 +4°C° 0 mm 2 mps 704 mmHg 91%
01:00 +3°C° 0 mm 2 mps 704 mmHg 91%
02:00 +5°C° 0.2 mm 1 mps 704 mmHg 91%
03:00 +5°C° 0.2 mm 1 mps 704 mmHg 92%
04:00 +5°C° 0.2 mm 1 mps 704 mmHg 93%
05:00 +6°C° 0.2 mm 1 mps 705 mmHg 93%
06:00 +6°C° 0.2 mm 1 mps 705 mmHg 93%
07:00 +6°C° 0.2 mm 1 mps 706 mmHg 93%
08:00 +6°C° 0.7 mm 1 mps 706 mmHg 94%
09:00 +5°C° 0.7 mm 1 mps 706 mmHg 95%
10:00 +5°C° 0.7 mm 1 mps 707 mmHg 95%
11:00 +5°C° 1.1 mm 1 mps 707 mmHg 96%
12:00 +4°C° 1.1 mm 1 mps 707 mmHg 96%
13:00 +4°C° 1.1 mm 1 mps 708 mmHg 96%
14:00 +5°C° 0.1 mm 1 mps 708 mmHg 95%
15:00 +5°C° 0.1 mm 1 mps 708 mmHg 94%
16:00 +6°C° 0.1 mm 1 mps 708 mmHg 93%
17:00 +5°C° 0.1 mm 1 mps 708 mmHg 94%
18:00 +5°C° 0.1 mm 1 mps 708 mmHg 95%
19:00 +5°C° 0.1 mm 1 mps 708 mmHg 96%
20:00 +4°C° 0.2 mm 1 mps 709 mmHg 96%
21:00 +4°C° 0.2 mm 1 mps 709 mmHg 96%
22:00 +4°C° 0.2 mm 1 mps 709 mmHg 96%
23:00 +4°C° 0.6 mm 1 mps 709 mmHg 96%

23 April, Friday

Time Temperature Precipitation Wind Pressure Humidity
00:00 +3°C° 0.6 mm 1 mps 708 mmHg 97%
01:00 +3°C° 0.6 mm 1 mps 708 mmHg 97%
02:00 +3°C° 1.8 mm 1 mps 708 mmHg 98%
03:00 +2°C° 1.8 mm 1 mps 708 mmHg 98%
04:00 +2°C° 1.8 mm 1 mps 708 mmHg 99%
05:00 +2°C° 1.2 mm 1 mps 708 mmHg 99%
06:00 +2°C° 1.2 mm 1 mps 709 mmHg 98%
07:00 +1°C° 1.2 mm 0 mps 709 mmHg 98%
08:00 +3°C° 0.3 mm 1 mps 709 mmHg 96%
09:00 +4°C° 0.3 mm 1 mps 709 mmHg 94%
10:00 +4°C° 0.3 mm 1 mps 709 mmHg 91%
11:00 +5°C° 0.1 mm 1 mps 710 mmHg 87%
12:00 +6°C° 0.1 mm 1 mps 710 mmHg 82%
13:00 +6°C° 0.1 mm 0 mps 710 mmHg 77%
14:00 +7°C° 0.1 mm 1 mps 710 mmHg 78%
15:00 +7°C° 0.1 mm 1 mps 710 mmHg 79%
16:00 +7°C° 0.1 mm 1 mps 710 mmHg 80%
17:00 +6°C° 0 mm 1 mps 710 mmHg 85%
18:00 +4°C° 0 mm 1 mps 711 mmHg 91%
19:00 +3°C° 0 mm 1 mps 711 mmHg 96%
20:00 +3°C° 0 mm 1 mps 711 mmHg 96%
21:00 +2°C° 0 mm 1 mps 711 mmHg 97%
22:00 +1°C° 0 mm 0 mps 712 mmHg 97%
23:00 +1°C° 0 mm 0 mps 712 mmHg 97%
Show more